This is the latest recevied weather packets stored in our database for station/object K6POO-1. If no packets are shown the sender has not sent any weather packets the latest 10 day(s).
| Time | Temp. | Humidity | Pressure | Rain* | Wind** | Luminosity | Snow |
|---|---|---|---|---|---|---|---|
| 1777744477 | 12.78° C | 84% | 1014.5 hPa | 0 mm | - | 160 W/m² | - |
| 1777744174 | 12.78° C | 85% | 1014.4 hPa | 0 mm | - | 154 W/m² | - |
| 1777743872 | 12.78° C | 85% | 1014.7 hPa | 0 mm | - | 138 W/m² | - |
| 1777743568 | 12.78° C | 86% | 1014.6 hPa | 0 mm | - | 117 W/m² | - |
| 1777743265 | 12.78° C | 86% | 1014.5 hPa | 0 mm | - | 115 W/m² | - |
| 1777742964 | 12.78° C | 86% | 1014.5 hPa | 0 mm | - | 126 W/m² | - |
| 1777742660 | 12.78° C | 86% | 1014.5 hPa | 0 mm | - | 101 W/m² | - |
| 1777742356 | 12.78° C | 86% | 1014.7 hPa | 0 mm | - | 85 W/m² | - |
| 1777742052 | 12.78° C | 85% | 1014.6 hPa | 0 mm | - | 79 W/m² | - |
| 1777741750 | 12.78° C | 86% | 1014.5 hPa | 0 mm | - | 122 W/m² | - |
| 1777741446 | 12.78° C | 87% | 1014.5 hPa | 0 mm | - | 165 W/m² | - |
| 1777741142 | 12.78° C | 87% | 1014.5 hPa | 0 mm | - | 187 W/m² | - |
| 1777740839 | 12.22° C | 88% | 1014.4 hPa | 0 mm | - | 146 W/m² | - |
| 1777740536 | 12.22° C | 88% | 1014.5 hPa | 0 mm | - | 115 W/m² | - |
| 1777740233 | 12.22° C | 89% | 1014.5 hPa | 0 mm | - | 88 W/m² | - |
| 1777739929 | 12.22° C | 89% | 1014.5 hPa | 0 mm | - | 64 W/m² | - |
| 1777739625 | 12.22° C | 90% | 1014.4 hPa | 0 mm | - | 62 W/m² | - |
| 1777739323 | 12.22° C | 90% | 1014.4 hPa | 0 mm | - | 70 W/m² | - |
| 1777739019 | 12.22° C | 90% | 1014.4 hPa | 0 mm | - | 72 W/m² | - |
| 1777738717 | 12.22° C | 90% | 1014.4 hPa | 0 mm | - | 67 W/m² | - |
| 1777738413 | 12.22° C | 90% | 1014.5 hPa | 0 mm | - | 69 W/m² | - |
| 1777738111 | 12.22° C | 90% | 1014.3 hPa | 0 mm | - | 48 W/m² | - |
| 1777737809 | 12.22° C | 90% | 1014.5 hPa | 0 mm | - | 43 W/m² | - |
| 1777737508 | 12.22° C | 91% | 1014.1 hPa | 0 mm | - | 54 W/m² | - |
| 1777737206 | 12.22° C | 91% | 1014.1 hPa | 0 mm | - | 45 W/m² | - |
* Rain latest hour (hover to see other rain measurements)
** Current wind speed in m/s (hover to see current wind gust speed)